Home   Weather   Altenburg   Past weeks
Flag for Germany

Past Weather in Altenburg, Thuringia, Germany — Yesterday and Last 2 Weeks

Now
48 °F

Dense fog.


Feels Like: 48 °F
Forecast: 69 / 47 °F
Wind: No wind

Location: Altenburg Nobitz

Current Time: Oct 23, 2019 at 4:42:13 am

Latest Report: Oct 23, 2019 at 3:50 am


Visibility: 0 mi

Pressure: 30.18 "Hg

Humidity: 94%

Dew Point: 46 °F

Location of AltenburgLocation

Past Weather in Altenburg — Graph

°F

Altenburg Temperature Yesterday

Maximum temperature yesterday: 64 °F (at 2:20 pm)
Minimum temperature yesterday: 45 °F (at 7:50 am)
Average temperature yesterday: 53 °F

High & Low Weather Summary for the Past Weeks

 TemperatureHumidityPressure
High77 °F (Oct 14, 2:50 pm)100% (Oct 14, 10:50 pm)30.27 "Hg (Oct 14, 10:50 pm)
Low45 °F (Oct 22, 7:50 am)47% (Oct 12, 2:50 pm)29.65 "Hg (Oct 15, 4:20 pm)
Average57 °F78%29.92 "Hg
* Reported Oct 8 3:20 am — Oct 23 3:20 am, Altenburg. Weather by CustomWeather, © 2019

Note: Actual official high and low records may vary slightly from our data, if they occured in-between our weather recording intervals... More about our weather records

Advertising

Altenburg Weather History for the Previous 24 Hours

Scroll right to see more
 ConditionsComfort  
Time TempWeatherWind HumidityBarometerVisibility
3:20 am
Wed, Oct 23
46 °FDense fog.2 mph100%30.21 "Hg0 mi
2:50 am48 °FDense fog.1 mph100%30.21 "Hg0 mi
2:20 am48 °FDense fog.1 mph94%30.21 "Hg0 mi
1:50 am48 °FDense fog.2 mph94%30.24 "Hg0 mi
1:20 am46 °FPartly cloudy.2 mph100%30.24 "Hg0 mi
12:50 am46 °FDense fog.1 mph100%30.24 "Hg1 mi
12:20 am46 °FPassing clouds.No wind100%30.24 "Hg1 mi
11:50 pm
Tue, Oct 22
46 °FPassing clouds.No wind100%30.24 "Hg1 mi
11:20 pm48 °FClear.No wind94%30.24 "Hg1 mi
10:50 pm48 °FClear.No wind94%30.24 "Hg1 mi
10:20 pm48 °FClear.2 mph94%30.24 "HgN/A
9:50 pm48 °FClear.2 mph94%30.24 "HgN/A
9:20 pm50 °FClear.2 mph94%30.21 "Hg5 mi
8:50 pm50 °FClear.1 mph94%30.21 "HgN/A
8:20 pm52 °FClear.3 mph94%30.24 "HgN/A
7:50 pm52 °FClear.No wind94%30.24 "Hg10 mi
7:20 pm54 °FClear.2 mph94%30.21 "Hg10 mi
6:50 pm55 °FClear.2 mph88%30.21 "Hg10 mi
6:20 pm59 °FClear.No wind82%30.21 "Hg10 mi
5:50 pm61 °FSunny.1 mph77%30.21 "Hg10 mi
5:20 pm61 °FSunny.2 mph77%30.21 "Hg10 mi
4:50 pm63 °FSunny.1 mph68%30.21 "Hg10 mi
4:20 pm63 °FSunny.2 mph64%30.21 "Hg10 mi
3:50 pm64 °FSunny.2 mph64%30.21 "Hg10 mi
3:20 pm64 °FSunny.2 mph60%30.24 "Hg10 mi
2:50 pm64 °FPassing clouds.3 mph60%30.24 "HgN/A
2:20 pm64 °FSunny.2 mph60%30.24 "Hg10 mi
1:50 pm63 °FSunny.6 mph64%30.24 "Hg10 mi
1:20 pm63 °FPassing clouds.3 mph64%30.24 "HgN/A
12:50 pm63 °FPassing clouds.5 mph68%30.27 "HgN/A
12:20 pm61 °FPassing clouds.3 mph72%30.27 "HgN/A
11:50 am61 °FSunny.2 mph72%30.27 "Hg10 mi
11:20 am61 °FSunny.1 mph72%30.24 "Hg10 mi
10:50 am57 °FPassing clouds.3 mph88%30.27 "HgN/A
10:20 am57 °FSunny.5 mph88%30.27 "Hg10 mi
9:50 am52 °FPassing clouds.3 mph94%30.24 "HgN/A
9:20 am50 °FSunny.2 mph94%30.21 "Hg10 mi
8:50 am46 °FSunny.1 mph100%30.21 "Hg10 mi
8:20 am46 °FSunny.No wind93%30.24 "Hg4 mi
7:50 am45 °FSunny.1 mph100%30.21 "Hg3 mi
7:20 am46 °FClear.2 mph100%30.24 "Hg4 mi
6:50 am46 °FClear.1 mph100%30.24 "Hg4 mi
6:20 am46 °FClear.2 mph93%30.21 "Hg1 mi
5:50 am46 °FClear.2 mph100%30.21 "Hg2 mi
5:20 am46 °FClear.2 mph100%30.21 "Hg1 mi
4:50 am48 °FClear.2 mph94%30.21 "Hg1 mi
4:20 am48 °FClear.2 mph94%30.21 "Hg2 mi
Weather by CustomWeather, © 2019

See weather overview